Date String (YYYY-MM-DD hh:mm:ss) UTC,Instrument flags,Ambient pressure (hPa),Sample flow (lpm),Bypass flow (lpm),Sample temperature (°C),Ambient temperature (°C),ASC tube jacket temperature (°C),LED temperature (°C),Box temperature (°C),Sample RH (%),Span deviation,Mass concentration (μg/m³),Mass concentration (μg/m³),Mass concentration (μg/m³)
DateTimeUTC,F1_M11,P_M11,Q1_M11,Q2_M11,T1_M11,T2_M11,T3_M11,T4_M11,T5_M11,U1_M11,ZSPAN_M11,X0_M11,X2_M11,X1_M11
2022-12-13 22:00:00,,0811.1,5.06,0.00,20.7,20.7,00.0,29.5,22.4,09.8,0000.0,0019.04,0005.75,0004.41
2022-12-13 22:01:00,,0811.0,4.95,0.00,20.8,21.2,00.0,29.5,22.6,09.8,0000.0,0018.67,0005.81,0004.41
2022-12-13 22:02:00,,0811.0,5.02,0.00,20.8,20.5,00.0,29.5,22.5,09.8,0000.0,0018.44,0005.86,0004.41
2022-12-13 22:03:00,,0811.1,4.99,0.00,20.7,19.8,00.0,29.5,22.3,09.8,0000.0,0017.82,0005.89,0004.41
2022-12-13 22:04:00,,0811.1,4.97,0.00,20.7,19.2,00.0,29.5,22.2,09.9,0000.0,0016.85,0005.91,0004.41
2022-12-13 22:05:00,,0811.2,5.04,0.00,20.6,18.8,00.0,29.5,22.1,09.9,0000.0,0016.26,0005.87,0004.42
2022-12-13 22:06:00,,0811.2,4.95,0.00,20.6,18.5,00.0,29.5,22.0,09.9,0000.0,0016.80,0005.90,0004.43
2022-12-13 22:07:00,,0811.2,5.04,0.00,20.5,18.5,00.0,29.5,22.0,09.9,0000.0,0016.51,0005.87,0004.44
2022-12-13 22:08:00,,0811.2,4.96,0.00,20.6,19.8,00.0,29.4,22.2,09.9,0000.0,0017.41,0005.86,0004.47
2022-12-13 22:09:00,,0811.2,5.03,0.00,20.7,21.1,00.0,29.5,22.5,09.9,0000.1,0018.14,0005.89,0004.49
2022-12-13 22:10:00,,0811.2,4.97,0.00,20.8,20.9,00.0,29.5,22.6,09.8,0000.0,0018.59,0005.91,0004.49
2022-12-13 22:11:00,,0811.1,5.02,0.00,20.8,20.2,00.0,29.5,22.4,09.8,0000.0,0018.52,0005.92,0004.51
2022-12-13 22:12:00,,0811.1,4.97,0.00,20.7,19.6,00.0,29.5,22.2,09.8,0000.0,0018.90,0005.97,0004.54
2022-12-13 22:13:00,,0811.2,5.04,0.00,20.6,19.0,00.0,29.5,22.1,09.8,0000.0,0019.18,0005.99,0004.56
2022-12-13 22:14:00,,0811.2,4.96,0.00,20.6,18.6,00.0,29.5,22.0,09.9,0000.0,0019.00,0005.99,0004.58
2022-12-13 22:15:00,,0811.2,5.02,0.00,20.5,18.4,00.0,29.5,22.0,10.0,0000.0,0018.36,0006.00,0004.59
2022-12-13 22:16:00,,0811.2,4.97,0.00,20.5,18.9,00.0,29.4,22.0,10.0,0000.0,0018.54,0006.04,0004.61
2022-12-13 22:17:00,,0811.2,5.02,0.00,20.6,20.4,00.0,29.4,22.3,10.0,0000.0,0018.13,0006.03,0004.61
2022-12-13 22:18:00,,0811.2,4.98,0.00,20.8,21.6,00.0,29.5,22.6,10.0,0000.0,0017.50,0006.03,0004.62
2022-12-13 22:19:00,,0811.2,5.03,0.00,20.8,21.2,00.0,29.5,22.6,10.0,0000.0,0017.59,0006.09,0004.62
2022-12-13 22:20:00,,0811.2,4.97,0.00,20.8,20.5,00.0,29.6,22.4,10.0,0000.0,0016.90,0006.14,0004.64
2022-12-13 22:21:00,,0811.3,5.01,0.00,20.7,19.8,00.0,29.6,22.3,10.0,0000.0,0016.35,0006.17,0004.65
2022-12-13 22:22:00,,0811.3,5.00,0.00,20.7,19.3,00.0,29.6,22.1,10.0,0000.0,0016.62,0006.14,0004.66
2022-12-13 22:23:00,,0811.3,5.00,0.00,20.6,18.9,00.0,29.5,22.1,10.1,0000.0,0016.37,0006.07,0004.66
2022-12-13 22:24:00,,0811.3,5.00,0.00,20.6,18.8,00.0,29.5,22.1,10.2,0000.0,0016.45,0006.06,0004.66
2022-12-13 22:25:00,,0811.4,5.04,0.00,20.6,18.6,00.0,29.5,22.0,10.2,0000.0,0016.47,0006.04,0004.65
2022-12-13 22:26:00,,0811.4,4.97,0.00,20.5,18.9,00.0,29.5,22.0,10.2,0000.0,0016.41,0005.99,0004.66
2022-12-13 22:27:00,,0811.4,5.02,0.00,20.6,20.4,00.0,29.5,22.3,10.1,0000.7,0016.09,0005.97,0004.66
2022-12-13 22:28:00,,0811.4,4.98,0.00,20.8,21.3,00.0,29.5,22.6,10.0,0002.7,0016.79,0006.03,0004.68
2022-12-13 22:29:00,,0811.4,5.02,0.00,20.8,20.9,00.0,29.5,22.6,10.0,0000.0,0016.99,0006.03,0004.68
2022-12-13 22:30:00,,0811.5,4.98,0.00,20.8,20.2,00.0,29.6,22.5,10.0,0000.0,0017.59,0006.00,0004.68
2022-12-13 22:31:00,,0811.5,5.00,0.00,20.8,19.7,00.0,29.6,22.4,10.1,0000.0,0018.07,0006.01,0004.68
2022-12-13 22:32:00,,0811.5,5.02,0.00,20.7,19.3,00.0,29.6,22.3,10.1,0000.0,0017.99,0006.00,0004.69
2022-12-13 22:33:00,,0811.6,4.96,0.00,20.7,18.9,00.0,29.6,22.2,10.1,0000.0,0017.43,0006.04,0004.71
2022-12-13 22:34:00,,0811.5,5.03,0.00,20.6,18.7,00.0,29.5,22.1,10.1,0000.0,0017.63,0006.11,0004.73
2022-12-13 22:35:00,,0811.6,5.00,0.00,20.6,18.6,00.0,29.5,22.0,10.1,0000.3,0017.53,0006.12,0004.75
2022-12-13 22:36:00,,0811.5,4.98,0.00,20.6,19.6,00.0,29.5,22.2,10.1,0000.8,0018.44,0006.20,0004.78
2022-12-13 22:37:00,,0811.6,5.03,0.00,20.7,21.0,00.0,29.5,22.5,10.0,0000.4,0018.58,0006.26,0004.80
2022-12-13 22:38:00,,0811.6,4.98,0.00,20.9,21.2,00.0,29.6,22.7,10.0,0000.3,0018.97,0006.33,0004.80
2022-12-13 22:39:00,,0811.6,5.02,0.00,20.9,20.6,00.0,29.6,22.6,09.9,0000.0,0019.70,0006.35,0004.81
2022-12-13 22:40:00,,0811.5,4.97,0.00,20.8,20.0,00.0,29.6,22.5,10.0,0000.0,0019.46,0006.31,0004.81
2022-12-13 22:41:00,,0811.5,5.00,0.00,20.8,19.5,00.0,29.6,22.4,10.0,0000.0,0018.47,0006.28,0004.81
2022-12-13 22:42:00,,0811.6,5.04,0.00,20.8,19.1,00.0,29.6,22.3,09.9,0000.0,0019.27,0006.35,0004.83
2022-12-13 22:43:00,,0811.5,4.96,0.00,20.7,18.8,00.0,29.6,22.2,10.0,0000.0,0020.73,0006.41,0004.84
2022-12-13 22:44:00,,0811.6,5.06,0.00,20.6,18.5,00.0,29.5,22.0,10.1,0000.0,0022.51,0006.48,0004.84
2022-12-13 22:45:00,,0811.6,4.96,0.00,20.6,18.6,00.0,29.5,22.0,10.1,0000.0,0022.38,0006.42,0004.84
2022-12-13 22:46:00,,0811.6,5.01,0.00,20.6,20.0,00.0,29.5,22.3,10.1,0000.0,0024.15,0006.47,0004.82
2022-12-13 22:47:00,,0811.5,5.02,0.00,20.8,21.1,00.0,29.5,22.6,10.0,0000.0,0025.09,0006.45,0004.81
2022-12-13 22:48:00,,0811.6,4.98,0.00,20.8,20.8,00.0,29.6,22.6,10.0,0000.0,0025.39,0006.48,0004.81
2022-12-13 22:49:00,,0811.6,5.01,0.00,20.8,20.1,00.0,29.6,22.5,09.9,0000.0,0025.22,0006.49,0004.81
2022-12-13 22:50:00,,0811.5,5.00,0.00,20.8,19.6,00.0,29.6,22.4,09.9,0000.0,0024.49,0006.49,0004.80
2022-12-13 22:51:00,,0811.6,4.96,0.00,20.7,19.2,00.0,29.6,22.2,09.9,0000.0,0024.79,0006.54,0004.80
2022-12-13 22:52:00,,0811.6,5.05,0.00,20.7,18.9,00.0,29.6,22.1,09.9,0000.0,0025.06,0006.61,0004.79
2022-12-13 22:53:00,,0811.6,4.95,0.00,20.6,18.6,00.0,29.5,22.0,09.9,0000.0,0024.69,0006.60,0004.78
2022-12-13 22:54:00,,0811.6,5.06,0.00,20.6,18.7,00.0,29.5,22.1,10.0,0000.0,0024.07,0006.51,0004.75
2022-12-13 22:55:00,,0811.6,4.96,0.00,20.6,20.1,00.0,29.5,22.3,09.9,0000.0,0024.32,0006.44,0004.73
2022-12-13 22:56:00,,0811.6,5.03,0.00,20.8,21.3,00.0,29.5,22.6,09.8,0000.0,0024.07,0006.44,0004.70
2022-12-13 22:57:00,,0811.6,5.00,0.00,20.9,21.1,00.0,29.6,22.7,09.7,0001.4,0022.06,0006.37,0004.69
2022-12-13 22:58:00,,0811.5,4.99,0.00,20.8,20.4,00.0,29.6,22.5,09.7,0000.8,0020.61,0006.35,0004.68
2022-12-13 22:59:00,,0811.5,5.00,0.00,20.8,19.7,00.0,29.6,22.4,09.7,-000.1,0021.43,0006.31,0004.66
